Regional Weather Roundup
Issued by NWS

Home | Current Version | Previous Version | Graphics & Text | Print | Product List | Glossary On
Versions: 1 2 3 4 5 6 7 8 9 10 11 12 13 14 15 16 17 18 19 20 21 22 23 24 25 26 27 28 29 30 31 32 33 34 35 36 37 38 39 40 41 42 43 44 45 46 47 48 49 50
000
ASUS45 KABQ 050910
RWRNM
NEW MEXICO REGIONAL WEATHER ROUNDUP
NATIONAL WEATHER SERVICE ALBUQUERQUE NM
300 AM MDT THU MAY 05 2016

NOTE: "FAIR" MEANS FEW OR NO CLOUDS BELOW 12,000 FEET AGL WITH NO
       SIGNIFICANT WEATHER OR OBSTRUCTIONS TO VISION.

      THIS PRODUCT IS RELEASED AS TWO VERSIONS.  ONE VERSION NEAR
      THE TOP OF THE HOUR CONTAINING PRELIMINARY DATA FROM ALBUQUERQUE
      AND OTHER STATIONS.  A FINAL VERSION WITH ADDITIONAL DATA IS
      ISSUED ABOUT 10 MINUTES AFTER THE HOUR.

NMZ501-503-504-510>518-051000-
NORTHWEST PLATEAU/NORTHCENTRAL MOUNTAINS

CITY           SKY/WX    TMP DP  RH WIND       PRES   REMARKS
FARMINGTON     FAIR      52  29  41 E6        30.14F
LOS ALAMOS     FAIR      55 -19   4 SW6       30.29S
SANTA FE       FAIR      51  20  29 CALM      30.23F
TAOS           FAIR      37  25  60 CALM      30.29F
ANGEL FIRE     FAIR      26  23  89 CALM      30.37S

$$
NMZ402-403-502-505>509-051000-
WESTCENTRAL MOUNTAINS/SOUTHWEST MOUNTAINS

CITY           SKY/WX    TMP DP  RH WIND       PRES   REMARKS
GALLUP         FAIR      53  28  38 CALM      30.18F
GRANTS         FAIR      47  29  51 S3        30.23F
SILVER CITY      N/A     59  21  23 E12       30.18F

$$
NMZ407-409-411-412-051000-
SOUTHERN DESERTS

CITY           SKY/WX    TMP DP  RH WIND       PRES   REMARKS
LORDSBURG      FAIR      61  23  23 SE12      30.07F
DEMING         FAIR      61  21  21 NE8       30.10F
LAS CRUCES     FAIR      62  19  18 SE6       30.13F
HOLLOMAN AFB   FAIR      52  17  25 N7        30.12F
ALAMOGORDO     FAIR      55  18  22 NE9       30.14S
T OR C         FAIR      58  23  26 SW3       30.14F

$$
NMZ519>523-051000-
CENTRAL VALLEYS/CENTRAL HIGHLANDS

CITY           SKY/WX    TMP DP  RH WIND       PRES   REMARKS
ALBUQUERQUE    FAIR      57  25  29 N6        30.18F
DOUBLE EAGLE   FAIR      48  25  40 S8        30.21F
MORIARTY ARPT  FAIR      33  20  59 N3        30.25F
CLINES CORNERS FAIR      45  21  38 SW9       30.25F
BELEN          FAIR      52  21  29 S3        30.17F
SOCORRO        FAIR      54  20  26 S8        30.15F

$$
NMZ524>526-539-540-051000-
SOUTHCENTRAL MOUNTAINS

CITY           SKY/WX    TMP DP  RH WIND       PRES   REMARKS
RUIDOSO          N/A     52  19  28 CALM      30.30F

$$
NMZ527>531-051000-
NORTHEAST HIGHLANDS/NORTHEAST PLAINS

CITY           SKY/WX    TMP DP  RH WIND       PRES   REMARKS
LAS VEGAS      FAIR      45  23  42 S9        30.26F
RATON          FAIR      44  29  55 N8        30.22F
CLAYTON        FAIR      48  35  60 W8        30.16F

$$
NMZ532>537-051000-
EASTCENTRAL PLAINS

CITY           SKY/WX    TMP DP  RH WIND       PRES   REMARKS
TUCUMCARI      FAIR      51  34  52 W9        30.13S
CANNON AFB     CLEAR     55  29  37 SW3       30.16F
CLOVIS AIRPORT FAIR      52  30  43 SW6       30.17F

$$
NMZ028-029-538-051000-
SOUTHEAST PLAINS

CITY           SKY/WX    TMP DP  RH WIND       PRES   REMARKS
ROSWELL        FAIR      50  26  39 CALM      30.12F
ARTESIA        FAIR      52  23  32 W7        30.12F
CARLSBAD       FAIR      53  25  33 N5        30.09F
HOBBS          FAIR      46  27  46 N3        30.14F


$$




USA.gov is the U.S. government's official web portal to all federal, state and local government web resources and services.